owner,sensor,date,latitude,longitude,air_pressure(mBar),qcFlag 
TABS,ioos:station:wmo:42043:1,2005-06-01T00:00:00Z,28.9818,-94.9186,1006.97,11111222 
TABS,ioos:station:wmo:42043:1,2005-06-01T00:30:00Z,28.9818,-94.9186,1006.89,11111222 
TABS,ioos:station:wmo:42043:1,2005-06-01T01:00:00Z,28.9818,-94.9186,1007.36,11111222 
TABS,ioos:station:wmo:42043:1,2005-06-01T01:30:00Z,28.9818,-94.9186,1007.3,11111222 
TABS,ioos:station:wmo:42043:1,2005-06-01T02:00:00Z,28.9818,-94.9186,1007.45,11111222 
TABS,ioos:station:wmo:42043:1,2005-06-01T02:30:00Z,28.9818,-94.9186,1007.65,11111222 
TABS,ioos:station:wmo:42043:1,2005-06-01T03:00:00Z,28.9818,-94.9186,1008.06,11111222 
TABS,ioos:station:wmo:42043:1,2005-06-01T03:30:00Z,28.9818,-94.9186,1008.33,11111222 
TABS,ioos:station:wmo:42043:1,2005-06-01T04:00:00Z,28.9818,-94.9186,1008.2,11111222 
TABS,ioos:station:wmo:42043:1,2005-06-01T04:30:00Z,28.9818,-94.9186,1008.39,11111222 
TABS,ioos:station:wmo:42043:1,2005-06-01T05:00:00Z,28.9818,-94.9186,1008.28,11111222 
TABS,ioos:station:wmo:42043:1,2005-06-01T05:30:00Z,28.9818,-94.9186,1007.9,11111222 
TABS,ioos:station:wmo:42043:1,2005-06-01T06:00:00Z,28.9818,-94.9186,1007.64,11111222 
TABS,ioos:station:wmo:42043:1,2005-06-01T06:30:00Z,28.9818,-94.9186,1007.25,11111222 
TABS,ioos:station:wmo:42043:1,2005-06-01T07:00:00Z,28.9818,-94.9186,1007.17,11111222 
TABS,ioos:station:wmo:42043:1,2005-06-01T07:30:00Z,28.9818,-94.9186,1007.26,11111222 
TABS,ioos:station:wmo:42043:1,2005-06-01T08:00:00Z,28.9818,-94.9186,1007.09,11111222 
TABS,ioos:station:wmo:42043:1,2005-06-01T08:30:00Z,28.9818,-94.9186,1006.53,11111222 
TABS,ioos:station:wmo:42043:1,2005-06-01T09:00:00Z,28.9818,-94.9186,1006.45,11111222 
TABS,ioos:station:wmo:42043:1,2005-06-01T09:30:00Z,28.9818,-94.9186,1006.99,11111222 
TABS,ioos:station:wmo:42043:1,2005-06-01T10:00:00Z,28.9818,-94.9186,1007.52,11111222 
TABS,ioos:station:wmo:42043:1,2005-06-01T10:30:00Z,28.9818,-94.9186,1008.05,11111222 
TABS,ioos:station:wmo:42043:1,2005-06-01T11:00:00Z,28.9818,-94.9186,1008.46,11111222 
TABS,ioos:station:wmo:42043:1,2005-06-01T11:30:00Z,28.9818,-94.9186,1008.76,11111222 
TABS,ioos:station:wmo:42043:1,2005-06-01T12:00:00Z,28.9818,-94.9186,1008.44,11111222 
TABS,ioos:station:wmo:42043:1,2005-06-01T12:30:00Z,28.9818,-94.9186,1008.84,11111222 
TABS,ioos:station:wmo:42043:1,2005-06-01T13:00:00Z,28.9818,-94.9186,1009.42,11111222 
TABS,ioos:station:wmo:42043:1,2005-06-01T13:30:00Z,28.9818,-94.9186,1009.54,11111222 
TABS,ioos:station:wmo:42043:1,2005-06-01T14:00:00Z,28.9818,-94.9186,1009.08,11111222 
TABS,ioos:station:wmo:42043:1,2005-06-01T14:30:00Z,28.9818,-94.9186,1007.64,11111222 
TABS,ioos:station:wmo:42043:1,2005-06-01T15:00:00Z,28.9818,-94.9186,1007.37,11111222 
TABS,ioos:station:wmo:42043:1,2005-06-01T15:30:00Z,28.9818,-94.9186,1009.11,11111222 
TABS,ioos:station:wmo:42043:1,2005-06-01T16:00:00Z,28.9818,-94.9186,1009.33,11111222 
TABS,ioos:station:wmo:42043:1,2005-06-01T16:30:00Z,28.9818,-94.9186,1009.0,11111222 
TABS,ioos:station:wmo:42043:1,2005-06-01T17:00:00Z,28.9818,-94.9186,1008.91,11111222 
TABS,ioos:station:wmo:42043:1,2005-06-01T17:30:00Z,28.9818,-94.9186,1008.64,11111222 
TABS,ioos:station:wmo:42043:1,2005-06-01T18:00:00Z,28.9818,-94.9186,1008.51,11111222 
TABS,ioos:station:wmo:42043:1,2005-06-01T18:30:00Z,28.9818,-94.9186,1008.27,11111222 
TABS,ioos:station:wmo:42043:1,2005-06-01T19:00:00Z,28.9818,-94.9186,1008.2,11111222 
TABS,ioos:station:wmo:42043:1,2005-06-01T19:30:00Z,28.9818,-94.9186,1008.02,11111222 
TABS,ioos:station:wmo:42043:1,2005-06-01T20:00:00Z,28.9818,-94.9186,1007.66,11111222 
TABS,ioos:station:wmo:42043:1,2005-06-01T20:30:00Z,28.9818,-94.9186,1007.63,11111222 
TABS,ioos:station:wmo:42043:1,2005-06-01T21:00:00Z,28.9818,-94.9186,1007.53,11111222 
TABS,ioos:station:wmo:42043:1,2005-06-01T21:30:00Z,28.9818,-94.9186,1007.41,11111222 
TABS,ioos:station:wmo:42043:1,2005-06-01T22:00:00Z,28.9818,-94.9186,1007.28,11111222 
TABS,ioos:station:wmo:42043:1,2005-06-01T22:30:00Z,28.9818,-94.9186,1007.2,11111222 
TABS,ioos:station:wmo:42043:1,2005-06-01T23:00:00Z,28.9818,-94.9186,1007.19,11111222 
TABS,ioos:station:wmo:42043:1,2005-06-01T23:30:00Z,28.9818,-94.9186,1007.17,11111222 
TABS,ioos:station:wmo:42043:1,2005-06-02T00:00:00Z,28.9818,-94.9186,1007.13,11111222 
TABS,ioos:station:wmo:42043:1,2005-06-02T00:30:00Z,28.9818,-94.9186,1007.22,11111222 
TABS,ioos:station:wmo:42043:1,2005-06-02T01:00:00Z,28.9818,-94.9186,1007.26,11111222 
TABS,ioos:station:wmo:42043:1,2005-06-02T01:30:00Z,28.9818,-94.9186,1007.64,11111222 
TABS,ioos:station:wmo:42043:1,2005-06-02T02:00:00Z,28.9818,-94.9186,1007.92,11111222 
TABS,ioos:station:wmo:42043:1,2005-06-02T02:30:00Z,28.9818,-94.9186,1007.94,11111222 
TABS,ioos:station:wmo:42043:1,2005-06-02T03:00:00Z,28.9818,-94.9186,1008.4,11111222 
TABS,ioos:station:wmo:42043:1,2005-06-02T03:30:00Z,28.9818,-94.9186,1008.8,11111222 
TABS,ioos:station:wmo:42043:1,2005-06-02T04:00:00Z,28.9818,-94.9186,1008.8,11111222 
TABS,ioos:station:wmo:42043:1,2005-06-02T04:30:00Z,28.9818,-94.9186,1009.08,11111222 
TABS,ioos:station:wmo:42043:1,2005-06-02T05:00:00Z,28.9818,-94.9186,1008.97,11111222 
TABS,ioos:station:wmo:42043:1,2005-06-02T05:30:00Z,28.9818,-94.9186,1008.88,11111222 
TABS,ioos:station:wmo:42043:1,2005-06-02T06:00:00Z,28.9818,-94.9186,1008.68,11111222 
TABS,ioos:station:wmo:42043:1,2005-06-02T06:30:00Z,28.9818,-94.9186,1008.69,11111222 
TABS,ioos:station:wmo:42043:1,2005-06-02T07:00:00Z,28.9818,-94.9186,1008.47,11111222 
TABS,ioos:station:wmo:42043:1,2005-06-02T07:30:00Z,28.9818,-94.9186,1008.32,11111222 
TABS,ioos:station:wmo:42043:1,2005-06-02T08:00:00Z,28.9818,-94.9186,1008.34,11111222 
TABS,ioos:station:wmo:42043:1,2005-06-02T08:30:00Z,28.9818,-94.9186,1008.34,11111222 
TABS,ioos:station:wmo:42043:1,2005-06-02T09:00:00Z,28.9818,-94.9186,1008.17,11111222 
TABS,ioos:station:wmo:42043:1,2005-06-02T09:30:00Z,28.9818,-94.9186,1008.1,11111222 
TABS,ioos:station:wmo:42043:1,2005-06-02T10:00:00Z,28.9818,-94.9186,1008.11,11111222 
TABS,ioos:station:wmo:42043:1,2005-06-02T10:30:00Z,28.9818,-94.9186,1008.41,11111222 
TABS,ioos:station:wmo:42043:1,2005-06-02T11:00:00Z,28.9818,-94.9186,1008.46,11111222 
TABS,ioos:station:wmo:42043:1,2005-06-02T11:30:00Z,28.9818,-94.9186,1008.84,11111222 
TABS,ioos:station:wmo:42043:1,2005-06-02T12:00:00Z,28.9818,-94.9186,1009.07,11111222 
TABS,ioos:station:wmo:42043:1,2005-06-02T12:30:00Z,28.9818,-94.9186,1009.24,11111222 
TABS,ioos:station:wmo:42043:1,2005-06-02T13:00:00Z,28.9818,-94.9186,1009.35,11111222 
TABS,ioos:station:wmo:42043:1,2005-06-02T13:30:00Z,28.9818,-94.9186,1009.49,11111222 
TABS,ioos:station:wmo:42043:1,2005-06-02T14:00:00Z,28.9818,-94.9186,1009.96,11111222 
TABS,ioos:station:wmo:42043:1,2005-06-02T14:30:00Z,28.9818,-94.9186,1010.1,11111222 
TABS,ioos:station:wmo:42043:1,2005-06-02T15:00:00Z,28.9818,-94.9186,1010.02,11111222 
TABS,ioos:station:wmo:42043:1,2005-06-02T15:30:00Z,28.9818,-94.9186,1010.14,11111222 
TABS,ioos:station:wmo:42043:1,2005-06-02T16:00:00Z,28.9818,-94.9186,1010.36,11111222 
TABS,ioos:station:wmo:42043:1,2005-06-02T16:30:00Z,28.9818,-94.9186,1010.1,11111222 
TABS,ioos:station:wmo:42043:1,2005-06-02T17:00:00Z,28.9818,-94.9186,1010.27,11111222 
TABS,ioos:station:wmo:42043:1,2005-06-02T17:30:00Z,28.9818,-94.9186,1010.01,11111222 
TABS,ioos:station:wmo:42043:1,2005-06-02T18:00:00Z,28.9818,-94.9186,1009.7,11111222 
TABS,ioos:station:wmo:42043:1,2005-06-02T18:30:00Z,28.9818,-94.9186,1009.43,11111222 
TABS,ioos:station:wmo:42043:1,2005-06-02T19:00:00Z,28.9818,-94.9186,1008.96,11111222 
TABS,ioos:station:wmo:42043:1,2005-06-02T19:30:00Z,28.9818,-94.9186,1008.69,11111222 
TABS,ioos:station:wmo:42043:1,2005-06-02T20:00:00Z,28.9818,-94.9186,1008.43,11111222 
TABS,ioos:station:wmo:42043:1,2005-06-02T20:30:00Z,28.9818,-94.9186,1007.96,11111222 
TABS,ioos:station:wmo:42043:1,2005-06-02T21:00:00Z,28.9818,-94.9186,1007.61,11111222 
TABS,ioos:station:wmo:42043:1,2005-06-02T21:30:00Z,28.9818,-94.9186,1007.49,11111222 
TABS,ioos:station:wmo:42043:1,2005-06-02T22:00:00Z,28.9818,-94.9186,1007.31,11111222 
TABS,ioos:station:wmo:42043:1,2005-06-02T22:30:00Z,28.9818,-94.9186,1007.27,11111222 
TABS,ioos:station:wmo:42043:1,2005-06-02T23:00:00Z,28.9818,-94.9186,1007.19,11111222 
TABS,ioos:station:wmo:42043:1,2005-06-02T23:30:00Z,28.9818,-94.9186,1007.28,11111222 
TABS,ioos:station:wmo:42043:1,2005-06-03T00:00:00Z,28.9818,-94.9186,1007.43,11111222 
TABS,ioos:station:wmo:42043:1,2005-06-03T00:30:00Z,28.9818,-94.9186,1007.5,11111222 
TABS,ioos:station:wmo:42043:1,2005-06-03T01:00:00Z,28.9818,-94.9186,1007.63,11111222 
TABS,ioos:station:wmo:42043:1,2005-06-03T01:30:00Z,28.9818,-94.9186,1007.8,11111222 
TABS,ioos:station:wmo:42043:1,2005-06-03T02:00:00Z,28.9818,-94.9186,1008.16,11111222 
TABS,ioos:station:wmo:42043:1,2005-06-03T02:30:00Z,28.9818,-94.9186,1008.33,11111222 
TABS,ioos:station:wmo:42043:1,2005-06-03T03:00:00Z,28.9818,-94.9186,1008.25,11111222 
TABS,ioos:station:wmo:42043:1,2005-06-03T03:30:00Z,28.9818,-94.9186,1008.38,11111222 
TABS,ioos:station:wmo:42043:1,2005-06-03T04:00:00Z,28.9818,-94.9186,1008.56,11111222 
TABS,ioos:station:wmo:42043:1,2005-06-03T04:30:00Z,28.9818,-94.9186,1008.53,11111222 
TABS,ioos:station:wmo:42043:1,2005-06-03T05:00:00Z,28.9818,-94.9186,1008.58,11111222 
TABS,ioos:station:wmo:42043:1,2005-06-03T05:30:00Z,28.9818,-94.9186,1008.11,11111222 
TABS,ioos:station:wmo:42043:1,2005-06-03T06:00:00Z,28.9818,-94.9186,1007.58,11111222 
TABS,ioos:station:wmo:42043:1,2005-06-03T06:30:00Z,28.9818,-94.9186,1006.99,11111222 
TABS,ioos:station:wmo:42043:1,2005-06-03T07:00:00Z,28.9818,-94.9186,1006.79,11111222 
TABS,ioos:station:wmo:42043:1,2005-06-03T07:30:00Z,28.9818,-94.9186,1006.6,11111222 
TABS,ioos:station:wmo:42043:1,2005-06-03T08:00:00Z,28.9818,-94.9186,1006.58,11111222 
TABS,ioos:station:wmo:42043:1,2005-06-03T08:30:00Z,28.9818,-94.9186,1006.31,11111222 
TABS,ioos:station:wmo:42043:1,2005-06-03T09:00:00Z,28.9818,-94.9186,1006.23,11111222 
TABS,ioos:station:wmo:42043:1,2005-06-03T09:30:00Z,28.9818,-94.9186,1006.28,11111222 
TABS,ioos:station:wmo:42043:1,2005-06-03T10:00:00Z,28.9818,-94.9186,1006.15,11111222 
TABS,ioos:station:wmo:42043:1,2005-06-03T10:30:00Z,28.9818,-94.9186,1006.02,11111222 
TABS,ioos:station:wmo:42043:1,2005-06-03T11:00:00Z,28.9818,-94.9186,1006.44,11111222 
TABS,ioos:station:wmo:42043:1,2005-06-03T11:30:00Z,28.9818,-94.9186,1006.42,11111222 
TABS,ioos:station:wmo:42043:1,2005-06-03T12:00:00Z,28.9818,-94.9186,1006.68,11111222 
TABS,ioos:station:wmo:42043:1,2005-06-03T12:30:00Z,28.9818,-94.9186,1007.74,11111222 
TABS,ioos:station:wmo:42043:1,2005-06-03T13:00:00Z,28.9818,-94.9186,1008.15,11111222 
TABS,ioos:station:wmo:42043:1,2005-06-03T13:30:00Z,28.9818,-94.9186,1008.62,11111222 
TABS,ioos:station:wmo:42043:1,2005-06-03T14:00:00Z,28.9818,-94.9186,1008.41,11111222 
TABS,ioos:station:wmo:42043:1,2005-06-03T14:30:00Z,28.9818,-94.9186,1008.46,11111222 
TABS,ioos:station:wmo:42043:1,2005-06-03T15:00:00Z,28.9818,-94.9186,1007.91,11111222 
TABS,ioos:station:wmo:42043:1,2005-06-03T15:30:00Z,28.9818,-94.9186,1008.43,11111222 
TABS,ioos:station:wmo:42043:1,2005-06-03T16:00:00Z,28.9818,-94.9186,1008.58,11111222 
TABS,ioos:station:wmo:42043:1,2005-06-03T16:30:00Z,28.9818,-94.9186,1008.58,11111222 
TABS,ioos:station:wmo:42043:1,2005-06-03T17:00:00Z,28.9818,-94.9186,1008.66,11111222 
TABS,ioos:station:wmo:42043:1,2005-06-03T17:30:00Z,28.9818,-94.9186,1008.74,11111222 
TABS,ioos:station:wmo:42043:1,2005-06-03T18:00:00Z,28.9818,-94.9186,1008.5,11111222 
TABS,ioos:station:wmo:42043:1,2005-06-03T18:30:00Z,28.9818,-94.9186,1008.78,11111222 
TABS,ioos:station:wmo:42043:1,2005-06-03T19:00:00Z,28.9818,-94.9186,1008.79,11111222 
TABS,ioos:station:wmo:42043:1,2005-06-03T19:30:00Z,28.9818,-94.9186,1007.87,11111222 
TABS,ioos:station:wmo:42043:1,2005-06-03T20:00:00Z,28.9818,-94.9186,1007.7,11111222 
TABS,ioos:station:wmo:42043:1,2005-06-03T20:30:00Z,28.9818,-94.9186,1007.87,11111222 
TABS,ioos:station:wmo:42043:1,2005-06-03T21:00:00Z,28.9818,-94.9186,1007.73,11111222 
TABS,ioos:station:wmo:42043:1,2005-06-03T21:30:00Z,28.9818,-94.9186,1007.42,11111222 
TABS,ioos:station:wmo:42043:1,2005-06-03T22:00:00Z,28.9818,-94.9186,1006.9,11111222 
TABS,ioos:station:wmo:42043:1,2005-06-03T22:30:00Z,28.9818,-94.9186,1006.64,11111222 
TABS,ioos:station:wmo:42043:1,2005-06-03T23:00:00Z,28.9818,-94.9186,1006.66,11111222 
TABS,ioos:station:wmo:42043:1,2005-06-03T23:30:00Z,28.9818,-94.9186,1006.65,11111222 
TABS,ioos:station:wmo:42043:1,2005-06-04T00:00:00Z,28.9818,-94.9186,1006.8,11111222 
TABS,ioos:station:wmo:42043:1,2005-06-04T00:30:00Z,28.9818,-94.9186,1007.11,11111222 
TABS,ioos:station:wmo:42043:1,2005-06-04T01:00:00Z,28.9818,-94.9186,1006.9,11111222 
TABS,ioos:station:wmo:42043:1,2005-06-04T01:30:00Z,28.9818,-94.9186,1007.01,11111222 
TABS,ioos:station:wmo:42043:1,2005-06-04T02:00:00Z,28.9818,-94.9186,1006.91,11111222 
TABS,ioos:station:wmo:42043:1,2005-06-04T02:30:00Z,28.9818,-94.9186,1007.05,11111222 
TABS,ioos:station:wmo:42043:1,2005-06-04T03:00:00Z,28.9818,-94.9186,1007.19,11111222 
TABS,ioos:station:wmo:42043:1,2005-06-04T03:30:00Z,28.9818,-94.9186,1007.42,11111222 
TABS,ioos:station:wmo:42043:1,2005-06-04T04:00:00Z,28.9818,-94.9186,1007.55,11111222 
TABS,ioos:station:wmo:42043:1,2005-06-04T04:30:00Z,28.9818,-94.9186,1007.69,11111222 
TABS,ioos:station:wmo:42043:1,2005-06-04T05:00:00Z,28.9818,-94.9186,1007.63,11111222 
TABS,ioos:station:wmo:42043:1,2005-06-04T05:30:00Z,28.9818,-94.9186,1007.47,11111222 
TABS,ioos:station:wmo:42043:1,2005-06-04T06:00:00Z,28.9818,-94.9186,1007.52,11111222 
TABS,ioos:station:wmo:42043:1,2005-06-04T06:30:00Z,28.9818,-94.9186,1007.63,11111222 
TABS,ioos:station:wmo:42043:1,2005-06-04T07:00:00Z,28.9818,-94.9186,1007.62,11111222 
TABS,ioos:station:wmo:42043:1,2005-06-04T07:30:00Z,28.9818,-94.9186,1007.34,11111222 
TABS,ioos:station:wmo:42043:1,2005-06-04T08:00:00Z,28.9818,-94.9186,1007.45,11111222 
TABS,ioos:station:wmo:42043:1,2005-06-04T08:30:00Z,28.9818,-94.9186,1007.43,11111222 
TABS,ioos:station:wmo:42043:1,2005-06-04T09:00:00Z,28.9818,-94.9186,1007.39,11111222 
TABS,ioos:station:wmo:42043:1,2005-06-04T09:30:00Z,28.9818,-94.9186,1007.52,11111222 
TABS,ioos:station:wmo:42043:1,2005-06-04T10:00:00Z,28.9818,-94.9186,1007.82,11111222 
TABS,ioos:station:wmo:42043:1,2005-06-04T10:30:00Z,28.9818,-94.9186,1007.75,11111222 
TABS,ioos:station:wmo:42043:1,2005-06-04T11:00:00Z,28.9818,-94.9186,1007.68,11111222 
TABS,ioos:station:wmo:42043:1,2005-06-04T11:30:00Z,28.9818,-94.9186,1007.96,11111222 
TABS,ioos:station:wmo:42043:1,2005-06-04T12:00:00Z,28.9818,-94.9186,1008.32,11111222 
TABS,ioos:station:wmo:42043:1,2005-06-04T12:30:00Z,28.9818,-94.9186,1008.41,11111222 
TABS,ioos:station:wmo:42043:1,2005-06-04T13:00:00Z,28.9818,-94.9186,1008.98,11111222 
TABS,ioos:station:wmo:42043:1,2005-06-04T13:30:00Z,28.9818,-94.9186,1009.18,11111222 
TABS,ioos:station:wmo:42043:1,2005-06-04T14:00:00Z,28.9818,-94.9186,1009.51,11111222 
TABS,ioos:station:wmo:42043:1,2005-06-04T14:30:00Z,28.9818,-94.9186,1009.63,11111222 
TABS,ioos:station:wmo:42043:1,2005-06-04T15:00:00Z,28.9818,-94.9186,1009.72,11111222 
TABS,ioos:station:wmo:42043:1,2005-06-04T15:30:00Z,28.9818,-94.9186,1009.75,11111222 
TABS,ioos:station:wmo:42043:1,2005-06-04T16:00:00Z,28.9818,-94.9186,1009.91,11111222 
TABS,ioos:station:wmo:42043:1,2005-06-04T16:30:00Z,28.9818,-94.9186,1010.14,11111222 
TABS,ioos:station:wmo:42043:1,2005-06-04T17:00:00Z,28.9818,-94.9186,1010.14,11111222 
TABS,ioos:station:wmo:42043:1,2005-06-04T17:30:00Z,28.9818,-94.9186,1010.05,11111222 
TABS,ioos:station:wmo:42043:1,2005-06-04T18:00:00Z,28.9818,-94.9186,1010.08,11111222 
TABS,ioos:station:wmo:42043:1,2005-06-04T18:30:00Z,28.9818,-94.9186,1009.7,11111222 
TABS,ioos:station:wmo:42043:1,2005-06-04T19:00:00Z,28.9818,-94.9186,1009.51,11111222 
TABS,ioos:station:wmo:42043:1,2005-06-04T19:30:00Z,28.9818,-94.9186,1009.27,11111222 
TABS,ioos:station:wmo:42043:1,2005-06-04T20:00:00Z,28.9818,-94.9186,1009.15,11111222 
TABS,ioos:station:wmo:42043:1,2005-06-04T20:30:00Z,28.9818,-94.9186,1008.82,11111222 
TABS,ioos:station:wmo:42043:1,2005-06-04T21:00:00Z,28.9818,-94.9186,1008.69,11111222 
TABS,ioos:station:wmo:42043:1,2005-06-04T21:30:00Z,28.9818,-94.9186,1008.7,11111222 
TABS,ioos:station:wmo:42043:1,2005-06-04T22:00:00Z,28.9818,-94.9186,1008.51,11111222 
TABS,ioos:station:wmo:42043:1,2005-06-04T22:30:00Z,28.9818,-94.9186,1008.37,11111222 
TABS,ioos:station:wmo:42043:1,2005-06-04T23:00:00Z,28.9818,-94.9186,1008.32,11111222 
TABS,ioos:station:wmo:42043:1,2005-06-04T23:30:00Z,28.9818,-94.9186,1008.33,11111222 
TABS,ioos:station:wmo:42043:1,2005-06-05T00:00:00Z,28.9818,-94.9186,1008.39,11111222 
TABS,ioos:station:wmo:42043:1,2005-06-05T00:30:00Z,28.9818,-94.9186,1008.52,11111222 
TABS,ioos:station:wmo:42043:1,2005-06-05T01:00:00Z,28.9818,-94.9186,1008.64,11111222 
TABS,ioos:station:wmo:42043:1,2005-06-05T01:30:00Z,28.9818,-94.9186,1008.78,11111222 
TABS,ioos:station:wmo:42043:1,2005-06-05T02:00:00Z,28.9818,-94.9186,1009.22,11111222 
TABS,ioos:station:wmo:42043:1,2005-06-05T02:30:00Z,28.9818,-94.9186,1008.95,11111222 
TABS,ioos:station:wmo:42043:1,2005-06-05T03:00:00Z,28.9818,-94.9186,1009.05,11111222 
TABS,ioos:station:wmo:42043:1,2005-06-05T03:30:00Z,28.9818,-94.9186,1008.94,11111222 
TABS,ioos:station:wmo:42043:1,2005-06-05T04:00:00Z,28.9818,-94.9186,1009.7,11111222 
TABS,ioos:station:wmo:42043:1,2005-06-05T04:30:00Z,28.9818,-94.9186,1009.75,11111222 
TABS,ioos:station:wmo:42043:1,2005-06-05T05:00:00Z,28.9818,-94.9186,1009.79,11111222 
TABS,ioos:station:wmo:42043:1,2005-06-05T05:30:00Z,28.9818,-94.9186,1009.96,11111222 
TABS,ioos:station:wmo:42043:1,2005-06-05T06:00:00Z,28.9818,-94.9186,1009.52,11111222 
TABS,ioos:station:wmo:42043:1,2005-06-05T06:30:00Z,28.9818,-94.9186,1010.42,11111222 
TABS,ioos:station:wmo:42043:1,2005-06-05T07:00:00Z,28.9818,-94.9186,1011.03,11111222 
TABS,ioos:station:wmo:42043:1,2005-06-05T07:30:00Z,28.9818,-94.9186,1011.44,11111222 
TABS,ioos:station:wmo:42043:1,2005-06-05T08:00:00Z,28.9818,-94.9186,1011.57,11111222 
TABS,ioos:station:wmo:42043:1,2005-06-05T08:30:00Z,28.9818,-94.9186,1010.33,11111222 
TABS,ioos:station:wmo:42043:1,2005-06-05T09:00:00Z,28.9818,-94.9186,1009.63,11111222 
TABS,ioos:station:wmo:42043:1,2005-06-05T09:30:00Z,28.9818,-94.9186,1008.67,11111222 
TABS,ioos:station:wmo:42043:1,2005-06-05T10:00:00Z,28.9818,-94.9186,1008.03,11111222 
TABS,ioos:station:wmo:42043:1,2005-06-05T10:30:00Z,28.9818,-94.9186,1008.62,11111222 
TABS,ioos:station:wmo:42043:1,2005-06-05T11:00:00Z,28.9818,-94.9186,1009.98,11111222 
TABS,ioos:station:wmo:42043:1,2005-06-05T11:30:00Z,28.9818,-94.9186,1009.86,11111222 
TABS,ioos:station:wmo:42043:1,2005-06-05T12:00:00Z,28.9818,-94.9186,1009.95,11111222 
TABS,ioos:station:wmo:42043:1,2005-06-05T12:30:00Z,28.9818,-94.9186,1010.72,11111222 
TABS,ioos:station:wmo:42043:1,2005-06-05T13:00:00Z,28.9818,-94.9186,1008.83,11111222 
TABS,ioos:station:wmo:42043:1,2005-06-05T13:30:00Z,28.9818,-94.9186,1010.95,11111222 
TABS,ioos:station:wmo:42043:1,2005-06-05T14:00:00Z,28.9818,-94.9186,1012.12,11111222 
TABS,ioos:station:wmo:42043:1,2005-06-05T14:30:00Z,28.9818,-94.9186,1012.48,11111222 
TABS,ioos:station:wmo:42043:1,2005-06-05T15:00:00Z,28.9818,-94.9186,1012.42,11111222 
TABS,ioos:station:wmo:42043:1,2005-06-05T15:30:00Z,28.9818,-94.9186,1012.64,11111222 
TABS,ioos:station:wmo:42043:1,2005-06-05T16:00:00Z,28.9818,-94.9186,1012.95,11111222 
TABS,ioos:station:wmo:42043:1,2005-06-05T16:30:00Z,28.9818,-94.9186,1013.03,11111222 
TABS,ioos:station:wmo:42043:1,2005-06-05T17:00:00Z,28.9818,-94.9186,1012.93,11111222 
TABS,ioos:station:wmo:42043:1,2005-06-05T17:30:00Z,28.9818,-94.9186,1012.77,11111222 
TABS,ioos:station:wmo:42043:1,2005-06-05T18:00:00Z,28.9818,-94.9186,1012.5,11111222 
TABS,ioos:station:wmo:42043:1,2005-06-05T18:30:00Z,28.9818,-94.9186,1012.22,11111222 
TABS,ioos:station:wmo:42043:1,2005-06-05T19:00:00Z,28.9818,-94.9186,1012.16,11111222 
TABS,ioos:station:wmo:42043:1,2005-06-05T19:30:00Z,28.9818,-94.9186,1012.03,11111222 
TABS,ioos:station:wmo:42043:1,2005-06-05T20:00:00Z,28.9818,-94.9186,1011.83,11111222 
TABS,ioos:station:wmo:42043:1,2005-06-05T20:30:00Z,28.9818,-94.9186,1011.41,11111222 
TABS,ioos:station:wmo:42043:1,2005-06-05T21:00:00Z,28.9818,-94.9186,1011.22,11111222 
TABS,ioos:station:wmo:42043:1,2005-06-05T21:30:00Z,28.9818,-94.9186,1011.12,11111222 
TABS,ioos:station:wmo:42043:1,2005-06-05T22:00:00Z,28.9818,-94.9186,1010.97,11111222 
TABS,ioos:station:wmo:42043:1,2005-06-05T22:30:00Z,28.9818,-94.9186,1010.81,11111222 
TABS,ioos:station:wmo:42043:1,2005-06-05T23:00:00Z,28.9818,-94.9186,1010.67,11111222 
TABS,ioos:station:wmo:42043:1,2005-06-05T23:30:00Z,28.9818,-94.9186,1010.94,11111222 
TABS,ioos:station:wmo:42043:1,2005-06-06T00:00:00Z,28.9818,-94.9186,1010.96,11111222 
TABS,ioos:station:wmo:42043:1,2005-06-06T00:30:00Z,28.9818,-94.9186,1010.95,11111222 
TABS,ioos:station:wmo:42043:1,2005-06-06T01:00:00Z,28.9818,-94.9186,1011.25,11111222 
TABS,ioos:station:wmo:42043:1,2005-06-06T01:30:00Z,28.9818,-94.9186,1011.34,11111222 
TABS,ioos:station:wmo:42043:1,2005-06-06T02:00:00Z,28.9818,-94.9186,1011.85,11111222 
TABS,ioos:station:wmo:42043:1,2005-06-06T02:30:00Z,28.9818,-94.9186,1012.24,11111222 
TABS,ioos:station:wmo:42043:1,2005-06-06T03:00:00Z,28.9818,-94.9186,1012.52,11111222 
TABS,ioos:station:wmo:42043:1,2005-06-06T03:30:00Z,28.9818,-94.9186,1012.56,11111222 
TABS,ioos:station:wmo:42043:1,2005-06-06T04:00:00Z,28.9818,-94.9186,1012.67,11111222 
TABS,ioos:station:wmo:42043:1,2005-06-06T04:30:00Z,28.9818,-94.9186,1012.89,11111222 
TABS,ioos:station:wmo:42043:1,2005-06-06T05:00:00Z,28.9818,-94.9186,1012.76,11111222 
TABS,ioos:station:wmo:42043:1,2005-06-06T05:30:00Z,28.9818,-94.9186,1012.47,11111222 
TABS,ioos:station:wmo:42043:1,2005-06-06T06:00:00Z,28.9818,-94.9186,1012.23,11111222 
TABS,ioos:station:wmo:42043:1,2005-06-06T06:30:00Z,28.9818,-94.9186,1012.26,11111222 
TABS,ioos:station:wmo:42043:1,2005-06-06T07:00:00Z,28.9818,-94.9186,1012.28,11111222 
TABS,ioos:station:wmo:42043:1,2005-06-06T07:30:00Z,28.9818,-94.9186,1011.98,11111222 
TABS,ioos:station:wmo:42043:1,2005-06-06T08:00:00Z,28.9818,-94.9186,1012.22,11111222 
TABS,ioos:station:wmo:42043:1,2005-06-06T08:30:00Z,28.9818,-94.9186,1011.93,11111222 
TABS,ioos:station:wmo:42043:1,2005-06-06T09:00:00Z,28.9818,-94.9186,1012.05,11111222 
TABS,ioos:station:wmo:42043:1,2005-06-06T09:30:00Z,28.9818,-94.9186,1012.07,11111222 
TABS,ioos:station:wmo:42043:1,2005-06-06T10:00:00Z,28.9818,-94.9186,1012.04,11111222 
TABS,ioos:station:wmo:42043:1,2005-06-06T10:30:00Z,28.9818,-94.9186,1011.73,11111222 
TABS,ioos:station:wmo:42043:1,2005-06-06T11:00:00Z,28.9818,-94.9186,1012.13,11111222 
TABS,ioos:station:wmo:42043:1,2005-06-06T11:30:00Z,28.9818,-94.9186,1012.08,11111222 
TABS,ioos:station:wmo:42043:1,2005-06-06T12:00:00Z,28.9818,-94.9186,1012.32,11111222 
TABS,ioos:station:wmo:42043:1,2005-06-06T12:30:00Z,28.9818,-94.9186,1012.67,11111222 
TABS,ioos:station:wmo:42043:1,2005-06-06T13:00:00Z,28.9818,-94.9186,1012.79,11111222 
TABS,ioos:station:wmo:42043:1,2005-06-06T13:30:00Z,28.9818,-94.9186,1013.38,11111222 
TABS,ioos:station:wmo:42043:1,2005-06-06T14:00:00Z,28.9818,-94.9186,1013.52,11111222 
TABS,ioos:station:wmo:42043:1,2005-06-06T14:30:00Z,28.9818,-94.9186,1013.53,11111222 
TABS,ioos:station:wmo:42043:1,2005-06-06T15:00:00Z,28.9818,-94.9186,1013.82,11111222 
TABS,ioos:station:wmo:42043:1,2005-06-06T15:30:00Z,28.9818,-94.9186,1013.96,11111222 
TABS,ioos:station:wmo:42043:1,2005-06-06T16:00:00Z,28.9818,-94.9186,1014.0,11111222 
TABS,ioos:station:wmo:42043:1,2005-06-06T16:30:00Z,28.9818,-94.9186,1013.71,11111222 
TABS,ioos:station:wmo:42043:1,2005-06-06T17:00:00Z,28.9818,-94.9186,1013.47,11111222 
TABS,ioos:station:wmo:42043:1,2005-06-06T17:30:00Z,28.9818,-94.9186,1013.35,11111222 
TABS,ioos:station:wmo:42043:1,2005-06-06T18:00:00Z,28.9818,-94.9186,1013.1,11111222 
TABS,ioos:station:wmo:42043:1,2005-06-06T18:30:00Z,28.9818,-94.9186,1012.94,11111222 